STARLINK-31140, 58767

Orbit data source: Space-Track

STARLINK-31140, 58767 is a payload satellite owned by SpaceX/Seattle (US) in LEO that was launched on Sun, 14 Jan 2024 UTC via an FALCON 9 launch vehicle from the Air Force Western Test Range (AFWTR). Payload-class satellites include a variety of spacecraft equipped with specific instruments for various scientific and technological missions. These include communications satellites like Starlink; space stations such as the ISS; scientific satellites like the Hubble; Earth observation satellites from companies like Planet Labs, Umbra, and HawkEye 360; GPS; miniature CubeSats for education and research; and military/defense satellites.

Loading next visibility...
Identifier
58767, 2024-011C
Orbit
LEO
Country
Flag of USUS
Related business
Manufacturer
SpaceX/Seattle
Mission
Operational Commercial Communications
Bus & Motor
STARLINK V2M, Unknown motor
Mass
730 kg wet, ~700 kg dry
Launch date (UTC)
2024-01-14 (2 years ago)
Launch vehicle
FALCON 9
Launch site
Air Force Western Test Range (AFWTR)
Object type
Payload
Rocket body
Debris
Shape & HBR
Box + 2 Pan, 17.7 m
Radar Cross Section
33.884 m², Large (>1 m²)

Expand to show TLE details & history
Last TLE update: 3 days ago

TLE from 3 days ago
0 STARLINK-31140
1 58767U 24011C   26170.51269012  .00001834  00000-0  65420-4 0  9990
2 58767  53.1591 260.4490 0001102 106.5565 253.5558 15.34391878135861
Epoch: 2026-06-19T12:18Z
TLE epoch observation values (Epoch: 2026-06-19T12:18:16.426Z)
Latitude
-0.00007°
Longitude
168.13991°
Altitude
463.842 km
Speed
7.636 km/s
True Right ascension
17h 21m 47s
True Declination
0° 00' 00"
Sunlit
Object was in full shadow at epoch
Visualization orbit readout
Latitude
Unknown
Longitude
Unknown
Altitude
Unknown
Speed
Unknown
Apparent Right ascension
Unknown
Apparent Declination
Unknown
Sunlit
N/A
Visualization observer readout
Local Sidereal Time
00:34:41
Azimuth
Unknown
Elevation
Unknown
Doppler factor
Unknown
Orbital elements
Apogee altitude
463.738 km
Perigee altitude
462.231 km
Semi-major axis
6,841.121 km
Eccentricity
0.00011
Inclination
53.1591°
RAAN
260.449°
Arg. of periapsis
106.5565°
True anomaly
253.54369°
Mean anomaly
253.5558°
Eccentric anomaly
253.54974°
Mean motion
3.83577 °/min
Orbital period
93.85 mins
BSTAR
0.00006542
Loading maneuver chart data...
Computing Atmospheric mass density...
Loading historical data...
Loading historical data...
Loading historical data...
Loading historical data...
Loading historical data...
Loading historical data...
Loading historical data...

Documentation

Showing up to 5 results
|